weather.gov     
National Weather Service

Terminal Aerodrome Forecast
NWS Homepage
This page is being discontinued on March 12, 2014.
The same data is available at this site. Please update your bookmarks.
Thank you, and we apologize for the inconvenience.
Please send an email to SR-SRH.Webmaster@noaa.gov with any concerns.


Current Version
Previous Version:    01  02  03  04  05  06  07  08  09  10  11  12  13  14  15  16  17  18  19  20  21  22  23  24  25  26  27  28  29  
[Printable]
551
FTUS45 KRIW 221600 AAB
TAFRKS
TAF AMD
KRKS 221606Z 2216/2312 24005KT 1/2SM FG VCSH VV002
     FM221700 23007KT P6SM VCSH SCT005 OVC010
     FM221800 27016G26KT P6SM VCSH SCT040 BKN060
     FM230100 27013KT P6SM SCT045 BKN080
     FM230500 25010KT P6SM BKN080=


U.S. Dept. of Commerce
NOAA National Weather Service
1325 East West Highway
Silver Spring, MD 20910
E-mail: w-nws.webmaster@noaa.gov
Page last modified: May 16, 2007
NATIONAL WEATHER SERVICE: for Safety, for Work, for Fun - FOR LIFE